Weather History for KTYQ - January, 2014

Change the Weather History Date:

Friday, January 24, 2014

  Actual Average (KEYE) Record (KEYE)
Temperature  
Mean Temperature 8 °F 28 °F  
Max Temperature 22 °F 35 °F 50 °F (2002)
Min Temperature -7 °F 21 °F -6 °F (2014)
Degree Days  
Heating Degree Days 58 37  
Month to date heating degree days 888  
Since 1 July heating degree days 2944  
Cooling Degree Days 0 0  
Month to date cooling degree days 0  
Year to date cooling degree days 0  
Moisture  
Dew Point -4 °F    
Average Humidity 61    
Maximum Humidity 77    
Minimum Humidity 44    
Precipitation  
Precipitation 0.00 in 0.04 in 0.28 in (1993)
Month to date precipitation 1.96  
Year to date precipitation 1.96  
Sea Level Pressure  
Sea Level Pressure 30.23 in    
Wind  
Wind Speed 13 mph (SW)    
Max Wind Speed 28 mph    
Max Gust Speed 41 mph    
Visibility 9 miles    
Events Snow    
T = Trace of Precipitation, MM = Missing Value Source: NWS Daily Summary

Daily Weather History Graph

Daily Weather History Graph

Search for Another Location

Airport or City:

Trip Planner

Search our weather history database for the weather conditions in past years. The results will help you decide how hot, cold, wet, or windy it might be!

Date:

Astronomy

Jan. 24, 2014 Rise Set
Actual Time 8:00 AM EST 5:54 PM EST
Civil Twilight 7:30 AM EST 6:23 PM EST
Nautical Twilight 6:58 AM EST 6:56 PM EST
Astronomical Twilight 6:25 AM EST 7:28 PM EST
Moon 1:26 AM EST (1/24) 12:12 PM EST (1/24)
Length of Visible Light 10h 52m
Length of Day
9h 54m
Last Quarter, 45% of the Moon is Illuminated
Jan 24
Last Quarter
Jan 30
New
Feb 6
First Quarter
Feb 14
Full
Feb 22
Last Quarter

Hourly Weather History & Observations

Time (EST) Temp. Windchill Dew Point Humidity Pressure Visibility Wind Dir Wind Speed Gust Speed Precip Events Conditions
12:15 AM -1.7 °F -16.2 °F -8.3 °F 73% 30.58 in 10.0 mi West 8.1 mph - N/A   Clear
12:35 AM -2.2 °F -18.0 °F -9.0 °F 73% 30.59 in 10.0 mi West 9.2 mph - N/A   Scattered Clouds
12:55 AM -2.0 °F -18.7 °F -9.2 °F 71% 30.58 in 10.0 mi West 10.4 mph - N/A   Clear
1:15 AM -2.2 °F -16.8 °F -9.6 °F 71% 30.58 in 10.0 mi West 8.1 mph - N/A   Clear
1:35 AM -2.7 °F -16.2 °F -10.3 °F 70% 30.58 in 10.0 mi West 6.9 mph - N/A   Scattered Clouds
1:55 AM -2.6 °F -17.3 °F -9.8 °F 71% 30.57 in 10.0 mi West 8.1 mph - N/A   Scattered Clouds
2:15 AM -3.6 °F -18.6 °F -10.5 °F 72% 30.57 in 10.0 mi WSW 8.1 mph - N/A   Scattered Clouds
2:35 AM -3.8 °F -16.1 °F -10.5 °F 73% 30.57 in 10.0 mi WSW 5.8 mph - N/A   Scattered Clouds
2:55 AM -4.2 °F -18.0 °F -11.2 °F 72% 30.57 in 10.0 mi WSW 6.9 mph - N/A   Scattered Clouds
3:15 AM -4.5 °F -16.9 °F -11.6 °F 72% 30.56 in 10.0 mi WSW 5.8 mph - N/A   Clear
3:35 AM -6.0 °F -18.6 °F -12.6 °F 73% 30.56 in 10.0 mi WSW 5.8 mph - N/A   Clear
3:55 AM -5.6 °F -19.7 °F -11.6 °F 75% 30.56 in 10.0 mi SW 6.9 mph - N/A   Clear
4:15 AM -5.8 °F -19.9 °F -11.7 °F 75% 30.55 in 10.0 mi WSW 6.9 mph - N/A   Clear
4:35 AM -5.4 °F -19.5 °F -11.4 °F 76% 30.53 in 10.0 mi SW 6.9 mph - N/A   Clear
4:55 AM -6.0 °F -18.6 °F -12.3 °F 74% 30.53 in 10.0 mi SW 5.8 mph - N/A   Clear
5:15 AM -6.5 °F -20.8 °F -12.8 °F 74% 30.53 in 10.0 mi SW 6.9 mph - N/A   Clear
5:35 AM -7.2 °F -21.7 °F -13.7 °F 73% 30.52 in 10.0 mi SW 6.9 mph - N/A   Clear
5:55 AM -6.7 °F -19.5 °F -13.0 °F 74% 30.51 in 10.0 mi SSW 5.8 mph - N/A   Clear
6:15 AM -6.9 °F -21.2 °F -13.2 °F 74% 30.51 in 10.0 mi SSW 6.9 mph - N/A   Clear
6:35 AM -7.2 °F -21.7 °F -13.7 °F 73% 30.50 in 10.0 mi SSW 6.9 mph - N/A   Clear
6:55 AM -7.2 °F -20.1 °F -13.7 °F 73% 30.49 in 10.0 mi SSW 5.8 mph - N/A   Clear
7:15 AM -6.3 °F -20.6 °F -13.0 °F 73% 30.47 in 10.0 mi SSW 6.9 mph - N/A   Clear
7:35 AM -7.1 °F -21.4 °F -13.5 °F 73% 30.47 in 10.0 mi SSW 6.9 mph - N/A   Clear
7:55 AM -5.8 °F -19.9 °F -12.3 °F 74% 30.47 in 10.0 mi SSW 6.9 mph - N/A   Clear
8:15 AM -5.4 °F -20.8 °F -12.3 °F 72% 30.45 in 10.0 mi SSW 8.1 mph - N/A   Clear
8:35 AM -4.5 °F -21.9 °F -11.4 °F 72% 30.45 in 10.0 mi SSW 10.4 mph - N/A   Clear
8:55 AM -3.5 °F -19.5 °F -10.5 °F 72% 30.43 in 10.0 mi SSW 9.2 mph - N/A   Clear
9:15 AM -1.5 °F -18.1 °F -9.4 °F 69% 30.42 in 10.0 mi SSW 10.4 mph - N/A   Clear
9:35 AM -0.0 °F -18.0 °F -8.5 °F 68% 30.42 in 10.0 mi SSW 12.7 mph 17.3 mph N/A   Clear
9:55 AM 1.4 °F -17.6 °F -7.8 °F 65% 30.41 in 10.0 mi SSW 15.0 mph 19.6 mph N/A   Clear
10:15 AM 2.7 °F -16.0 °F -7.1 °F 64% 30.40 in 10.0 mi SSW 15.0 mph 24.2 mph N/A   Clear
10:35 AM 4.1 °F -14.7 °F -6.5 °F 61% 30.38 in 10.0 mi SSW 16.1 mph 21.9 mph N/A   Clear
10:55 AM 5.0 °F -13.6 °F -5.8 °F 61% 30.37 in 10.0 mi SSW 16.1 mph 25.3 mph N/A   Clear
11:15 AM 6.3 °F -13.6 °F -5.1 °F 60% 30.36 in 10.0 mi SW 19.6 mph 25.3 mph N/A   Clear
11:35 AM 7.3 °F -11.7 °F -4.4 °F 59% 30.34 in 10.0 mi SSW 18.4 mph 24.2 mph N/A   Clear
11:55 AM 8.8 °F -10.8 °F -3.6 °F 57% 30.32 in 10.0 mi SSW 20.7 mph 27.6 mph N/A   Clear
12:15 PM 10.0 °F -8.6 °F -2.9 °F 56% 30.30 in 10.0 mi SW 19.6 mph 24.2 mph N/A   Clear
12:35 PM 11.1 °F -7.7 °F -2.7 °F 54% 30.28 in 7.0 mi SSW 20.7 mph 28.8 mph N/A   Clear
12:55 PM 11.7 °F -7.8 °F -2.4 °F 53% 30.24 in 10.0 mi SSW 23.0 mph 32.2 mph N/A   Clear
1:15 PM 12.7 °F -6.4 °F -2.0 °F 52% 30.21 in 10.0 mi SSW 23.0 mph 29.9 mph N/A   Clear
1:35 PM 13.5 °F -3.7 °F -1.7 °F 51% 30.18 in 10.0 mi SSW 18.4 mph 31.1 mph N/A   Clear
1:55 PM 14.0 °F -5.1 °F -0.8 °F 52% 30.15 in 5.0 mi SSW 24.2 mph 32.2 mph N/A   Haze
2:15 PM 14.9 °F -3.1 °F -0.9 °F 50% 30.13 in 10.0 mi SSW 21.9 mph 31.1 mph N/A   Clear
2:35 PM 15.4 °F -2.4 °F -0.2 °F 50% 30.11 in 5.0 mi SSW 21.9 mph 36.8 mph N/A   Haze
2:55 PM 16.5 °F -2.1 °F 0.3 °F 49% 30.07 in 7.0 mi SSW 25.3 mph 33.4 mph N/A   Clear
3:15 PM 16.5 °F -1.7 °F 0.7 °F 50% 30.06 in 4.0 mi SSW 24.2 mph 39.1 mph N/A   Haze
3:35 PM 16.7 °F -1.5 °F 0.3 °F 49% 30.04 in 7.0 mi SSW 24.2 mph 34.5 mph N/A   Clear
3:55 PM 17.6 °F -0.3 °F -0.6 °F 45% 30.03 in 10.0 mi SSW 24.2 mph 33.4 mph N/A   Clear
4:15 PM 18.0 °F 1.7 °F -0.8 °F 44% 30.01 in 10.0 mi SSW 19.6 mph 27.6 mph N/A   Clear
4:35 PM 18.1 °F -0.3 °F -0.0 °F 45% 29.97 in 7.0 mi SSW 26.5 mph 36.8 mph N/A   Scattered Clouds
4:55 PM 18.1 °F 0.8 °F 0.3 °F 46% 29.94 in 7.0 mi SSW 23.0 mph 41.4 mph N/A   Clear
5:15 PM 18.5 °F 0.9 °F 0.5 °F 45% 29.94 in 10.0 mi SSW 24.2 mph 35.7 mph N/A   Clear
5:35 PM 19.0 °F 1.0 °F 0.5 °F 44% 29.92 in 10.0 mi SSW 26.5 mph 31.1 mph N/A   Clear
5:55 PM 19.4 °F 1.8 °F 2.1 °F 47% 29.91 in 5.0 mi SSW 25.3 mph 39.1 mph N/A   Haze
6:15 PM 19.4 °F 1.4 °F 2.1 °F 47% 29.90 in 10.0 mi SSW 26.5 mph 34.5 mph N/A   Clear
6:35 PM 19.6 °F 1.4 °F 2.8 °F 48% 29.90 in 10.0 mi SSW 27.6 mph 41.4 mph N/A   Clear
6:55 PM 19.4 °F 2.8 °F 3.4 °F 50% 29.90 in 10.0 mi SSW 21.9 mph 35.7 mph N/A   Scattered Clouds
7:15 PM 19.6 °F 3.1 °F 3.7 °F 50% 29.90 in 10.0 mi SSW 21.9 mph 28.8 mph N/A   Clear
7:35 PM 19.9 °F 3.2 °F 3.6 °F 49% 29.90 in 10.0 mi SSW 23.0 mph 28.8 mph N/A   Scattered Clouds
7:55 PM 20.1 °F 5.0 °F 3.7 °F 49% 29.89 in 10.0 mi SSW 18.4 mph 31.1 mph N/A   Scattered Clouds
8:15 PM 20.3 °F 3.7 °F 3.9 °F 49% 29.86 in 10.0 mi SSW 23.0 mph 31.1 mph N/A   Clear
8:35 PM 20.8 °F 4.4 °F 3.7 °F 48% 29.86 in 10.0 mi SW 23.0 mph 28.8 mph N/A   Scattered Clouds
8:55 PM 21.2 °F 4.9 °F 3.7 °F 47% 29.84 in 10.0 mi SW 23.0 mph 31.1 mph N/A   Mostly Cloudy
9:15 PM 21.7 °F 5.2 °F 4.1 °F 47% 29.83 in 10.0 mi SSW 24.2 mph 31.1 mph N/A   Overcast
9:35 PM 21.9 °F 5.1 °F 4.3 °F 47% 29.83 in 10.0 mi SW 25.3 mph 35.7 mph N/A   Overcast
9:55 PM 22.1 °F 5.4 °F 4.3 °F 46% 29.83 in 10.0 mi SW 25.3 mph 34.5 mph N/A   Overcast
10:15 PM 21.2 °F 3.5 °F 9.0 °F 59% 29.82 in 2.5 mi SW 27.6 mph 38.0 mph N/A Snow Light Snow
10:35 PM 20.3 °F 3.3 °F 11.8 °F 70% 29.80 in 2.5 mi SW 24.2 mph 31.1 mph N/A Snow Light Snow
10:55 PM 19.9 °F 4.3 °F 13.1 °F 75% 29.78 in 2.0 mi SW 19.6 mph 29.9 mph N/A Snow Light Snow
11:15 PM 19.9 °F 3.2 °F 13.8 °F 77% 29.76 in 3.0 mi SSW 23.0 mph 29.9 mph N/A Snow Light Snow
11:35 PM 20.1 °F 4.2 °F 13.5 °F 75% 29.75 in 2.5 mi SSW 20.7 mph 32.2 mph N/A Snow Light Snow
11:55 PM 20.3 °F 4.4 °F 12.9 °F 73% 29.74 in 3.0 mi SW 20.7 mph 29.9 mph N/A Snow Light Snow